Location: Possagno
(45.8500°N, 11.8667°E)
Time: 11:04:15
(UTC+00:00)

IRAS Rocket - Pass Details

Date: 07 June 2020
Orbit: 847 x 878 km, 100.0° (Epoch: 04 July)

Event Time Altitude Azimuth Distance (km) Brightness Sun altitude
Exits shadow 00:18:05 32° 166° (SSE) 1,446 4.9 -19.7°
Maximum altitude 00:20:49 86° 251° (WSW) 868 4.2 -19.6°
Drops below altitude 10° 00:26:22 10° 343° (NNW) 2,496 7.4 -19.3°
Sets 00:28:44 0° 344° (NNW) 3,433 8.3 -19.2°
